Burlington, WA
on Friday, December 28, 2012

Friday
Previous Day Next Day
Daily Summary
 ActualAverage (KBLI)Record (KBLI)
Temperature
Mean Temperature °F / °C 38°F / 3°C  
Max Temperature 42°F / 6°C 44°F / 7°C 59°F / 15°C (1986)
Min Temperature 39°F / 4°C 32°F / 0°C 1°F / -17°C (1968)
Degree Days
Heating Degree Days 24 27  
Month to date heating degree days 746  
Cooling Degree Days 0 0  
Month to date cooling degree days 0  
Year to date cooling degree days 42  
Moisture
Dew Point 39°F / 4°C   
Average Humidity 94    
Maximum Humidity 100    
Minimum Humidity 87    
Precipitation
Precipitation 0.00 in / 0.00 cm 0.12 in / 3.05 cm 0.99 in / 2.51 cm (1949)
Month to date precipitation 3.87  
Year to date precipitation 35.48  
Wind
Wind Speed 7 mph / 11 km/h   
Max Wind Speed 13 mph / 21 km/h   
Max Gust Speed mph / km/h   
Visibility 9 miles / 14 kilometers   
Events     

Key: T is trace of precipitation, MM is missing value
Source: NWS Daily Summary
Time(PST)TemperatureDew PointHumidity Pressure Visibility Wind DirectionWind SpeedGust SpeedPrecipitationEvents Conditions
12:35 AM 41.0°F / 5.0°C 41.0°F / 5.0°C 100% 30.17 in / 1021.6 hPa 8.0 miles / 12.9 kilometers ENE 5.8 mph / 9.3 km/h - 0.00 in / 0.0 cm   Overcast
12:55 AM 41.0°F / 5.0°C 41.0°F / 5.0°C 100% 30.17 in / 1021.6 hPa 9.0 miles / 14.5 kilometers ENE 5.8 mph / 9.3 km/h - 0.00 in / 0.0 cm   Mostly Cloudy
1:15 AM 41.0°F / 5.0°C 41.0°F / 5.0°C 100% 30.17 in / 1021.6 hPa 8.0 miles / 12.9 kilometers East 4.6 mph / 7.4 km/h - 0.00 in / 0.0 cm   Mostly Cloudy
1:35 AM 39.2°F / 4.0°C 39.2°F / 4.0°C 100% 30.17 in / 1021.6 hPa 9.0 miles / 14.5 kilometers East 3.5 mph / 5.6 km/h - 0.00 in / 0.0 cm   Mostly Cloudy
1:55 AM 41.0°F / 5.0°C 41.0°F / 5.0°C 100% 30.17 in / 1021.6 hPa 9.0 miles / 14.5 kilometers East 4.6 mph / 7.4 km/h - 0.00 in / 0.0 cm   Overcast
2:15 AM 41.0°F / 5.0°C 41.0°F / 5.0°C 100% 30.18 in / 1021.9 hPa 9.0 miles / 14.5 kilometers East 5.8 mph / 9.3 km/h - 0.00 in / 0.0 cm   Overcast
2:35 AM 41.0°F / 5.0°C 41.0°F / 5.0°C 100% 30.17 in / 1021.6 hPa 10.0 miles / 16.1 kilometers East 6.9 mph / 11.1 km/h - 0.00 in / 0.0 cm   Overcast
2:55 AM 41.0°F / 5.0°C 41.0°F / 5.0°C 100% 30.17 in / 1021.6 hPa 9.0 miles / 14.5 kilometers East 6.9 mph / 11.1 km/h - 0.00 in / 0.0 cm   Mostly Cloudy
3:15 AM 39.2°F / 4.0°C 39.2°F / 4.0°C 100% 30.16 in / 1021.2 hPa 10.0 miles / 16.1 kilometers East 6.9 mph / 11.1 km/h - 0.00 in / 0.0 cm   Scattered Clouds
3:35 AM 39.2°F / 4.0°C 39.2°F / 4.0°C 100% 30.16 in / 1021.2 hPa 9.0 miles / 14.5 kilometers East 6.9 mph / 11.1 km/h - 0.00 in / 0.0 cm   Partly Cloudy
3:55 AM 39.2°F / 4.0°C 39.2°F / 4.0°C 100% 30.15 in / 1020.9 hPa 10.0 miles / 16.1 kilometers East 5.8 mph / 9.3 km/h - 0.00 in / 0.0 cm   Partly Cloudy
4:15 AM 39.2°F / 4.0°C 39.2°F / 4.0°C 100% 30.16 in / 1021.2 hPa 10.0 miles / 16.1 kilometers Calm Calm - 0.00 in / 0.0 cm   Mostly Cloudy
4:35 AM 39.2°F / 4.0°C 39.2°F / 4.0°C 100% 30.15 in / 1020.9 hPa 10.0 miles / 16.1 kilometers East 8.1 mph / 13.0 km/h - 0.00 in / 0.0 cm   Mostly Cloudy
5:15 AM 39.2°F / 4.0°C 39.2°F / 4.0°C 100% 30.15 in / 1020.9 hPa 10.0 miles / 16.1 kilometers East 9.2 mph / 14.8 km/h - 0.00 in / 0.0 cm   Overcast
5:35 AM 39.2°F / 4.0°C 39.2°F / 4.0°C 100% 30.14 in / 1020.5 hPa 10.0 miles / 16.1 kilometers ENE 10.4 mph / 16.7 km/h - 0.00 in / 0.0 cm   Overcast
6:15 AM 39.2°F / 4.0°C 39.2°F / 4.0°C 100% 30.14 in / 1020.5 hPa 10.0 miles / 16.1 kilometers ENE 5.8 mph / 9.3 km/h - 0.00 in / 0.0 cm   Overcast
6:55 AM 39.2°F / 4.0°C 39.2°F / 4.0°C 100% 30.13 in / 1020.2 hPa 10.0 miles / 16.1 kilometers ENE 8.1 mph / 13.0 km/h - 0.00 in / 0.0 cm   Mostly Cloudy
7:15 AM 39.2°F / 4.0°C 39.2°F / 4.0°C 100% 30.13 in / 1020.2 hPa 10.0 miles / 16.1 kilometers ENE 6.9 mph / 11.1 km/h - 0.00 in / 0.0 cm   Mostly Cloudy
7:35 AM 39.2°F / 4.0°C 39.2°F / 4.0°C 100% 30.13 in / 1020.2 hPa 10.0 miles / 16.1 kilometers ENE 6.9 mph / 11.1 km/h - 0.00 in / 0.0 cm   Overcast
7:55 AM 39.2°F / 4.0°C 39.2°F / 4.0°C 100% 30.13 in / 1020.2 hPa 10.0 miles / 16.1 kilometers ENE 9.2 mph / 14.8 km/h - 0.00 in / 0.0 cm   Overcast
8:15 AM 39.2°F / 4.0°C 37.4°F / 3.0°C 93% 30.13 in / 1020.2 hPa 9.0 miles / 14.5 kilometers ENE 10.4 mph / 16.7 km/h - 0.00 in / 0.0 cm   Overcast
8:35 AM 39.2°F / 4.0°C 39.2°F / 4.0°C 100% 30.14 in / 1020.5 hPa 9.0 miles / 14.5 kilometers ENE 11.5 mph / 18.5 km/h - 0.00 in / 0.0 cm   Mostly Cloudy
8:55 AM 39.2°F / 4.0°C 39.2°F / 4.0°C 100% 30.14 in / 1020.5 hPa 8.0 miles / 12.9 kilometers ENE 10.4 mph / 16.7 km/h - 0.00 in / 0.0 cm   Scattered Clouds
9:15 AM 39.2°F / 4.0°C 39.2°F / 4.0°C 100% 30.15 in / 1020.9 hPa 8.0 miles / 12.9 kilometers NE 8.1 mph / 13.0 km/h - 0.00 in / 0.0 cm   Clear
9:35 AM 39.2°F / 4.0°C 39.2°F / 4.0°C 100% 30.15 in / 1020.9 hPa 8.0 miles / 12.9 kilometers NE 9.2 mph / 14.8 km/h - 0.00 in / 0.0 cm   Clear
9:55 AM 41.0°F / 5.0°C 39.2°F / 4.0°C 93% 30.15 in / 1020.9 hPa 8.0 miles / 12.9 kilometers ENE 10.4 mph / 16.7 km/h - 0.00 in / 0.0 cm   Clear
10:15 AM 41.0°F / 5.0°C 39.2°F / 4.0°C 93% 30.15 in / 1020.9 hPa 8.0 miles / 12.9 kilometers NE 10.4 mph / 16.7 km/h - 0.00 in / 0.0 cm   Clear
10:35 AM 41.0°F / 5.0°C 39.2°F / 4.0°C 93% 30.15 in / 1020.9 hPa 8.0 miles / 12.9 kilometers NE 12.7 mph / 20.4 km/h - 0.00 in / 0.0 cm   Clear
10:55 AM 42.8°F / 6.0°C 39.2°F / 4.0°C 87% 30.15 in / 1020.9 hPa 8.0 miles / 12.9 kilometers ENE 11.5 mph / 18.5 km/h - 0.00 in / 0.0 cm   Clear
11:15 AM 42.8°F / 6.0°C 39.2°F / 4.0°C 87% 30.14 in / 1020.5 hPa 8.0 miles / 12.9 kilometers NE 11.5 mph / 18.5 km/h - 0.00 in / 0.0 cm   Clear
11:35 AM 42.8°F / 6.0°C 39.2°F / 4.0°C 87% 30.14 in / 1020.5 hPa 8.0 miles / 12.9 kilometers NE 10.4 mph / 16.7 km/h - 0.00 in / 0.0 cm   Clear
11:55 AM 42.8°F / 6.0°C 39.2°F / 4.0°C 87% 30.14 in / 1020.5 hPa 8.0 miles / 12.9 kilometers NE 10.4 mph / 16.7 km/h - 0.00 in / 0.0 cm   Clear
12:15 PM 42.8°F / 6.0°C 39.2°F / 4.0°C 87% 30.14 in / 1020.5 hPa 8.0 miles / 12.9 kilometers NE 10.4 mph / 16.7 km/h - 0.00 in / 0.0 cm   Clear
12:35 PM 42.8°F / 6.0°C 39.2°F / 4.0°C 87% 30.13 in / 1020.2 hPa 8.0 miles / 12.9 kilometers NNE 8.1 mph / 13.0 km/h - 0.00 in / 0.0 cm   Clear
12:55 PM 42.8°F / 6.0°C 39.2°F / 4.0°C 87% 30.13 in / 1020.2 hPa 7.0 miles / 11.3 kilometers NE 8.1 mph / 13.0 km/h - 0.00 in / 0.0 cm   Clear
1:35 PM 42.8°F / 6.0°C 39.2°F / 4.0°C 87% 30.13 in / 1020.2 hPa 7.0 miles / 11.3 kilometers NNE 8.1 mph / 13.0 km/h - 0.00 in / 0.0 cm   Partly Cloudy
1:55 PM 42.8°F / 6.0°C 39.2°F / 4.0°C 87% 30.13 in / 1020.2 hPa 8.0 miles / 12.9 kilometers NE 6.9 mph / 11.1 km/h - 0.00 in / 0.0 cm   Clear
2:15 PM 42.8°F / 6.0°C 39.2°F / 4.0°C 87% 30.12 in / 1019.9 hPa 8.0 miles / 12.9 kilometers NE 6.9 mph / 11.1 km/h - 0.00 in / 0.0 cm   Partly Cloudy
2:35 PM 42.8°F / 6.0°C 39.2°F / 4.0°C 87% 30.13 in / 1020.2 hPa 8.0 miles / 12.9 kilometers NE 5.8 mph / 9.3 km/h - 0.00 in / 0.0 cm   Clear
2:55 PM 42.8°F / 6.0°C 39.2°F / 4.0°C 87% 30.13 in / 1020.2 hPa 7.0 miles / 11.3 kilometers NNE 5.8 mph / 9.3 km/h - 0.00 in / 0.0 cm   Clear
3:35 PM 42.8°F / 6.0°C 39.2°F / 4.0°C 87% 30.13 in / 1020.2 hPa 8.0 miles / 12.9 kilometers NE 8.1 mph / 13.0 km/h - 0.00 in / 0.0 cm   Scattered Clouds
3:55 PM 42.8°F / 6.0°C 39.2°F / 4.0°C 87% 30.14 in / 1020.5 hPa 7.0 miles / 11.3 kilometers NE 5.8 mph / 9.3 km/h - 0.00 in / 0.0 cm   Overcast
4:15 PM 42.8°F / 6.0°C 39.2°F / 4.0°C 87% 30.14 in / 1020.5 hPa 7.0 miles / 11.3 kilometers NE 5.8 mph / 9.3 km/h - 0.00 in / 0.0 cm   Overcast
4:35 PM 42.8°F / 6.0°C 39.2°F / 4.0°C 87% 30.14 in / 1020.5 hPa 8.0 miles / 12.9 kilometers NE 8.1 mph / 13.0 km/h - 0.00 in / 0.0 cm   Overcast
5:15 PM 42.8°F / 6.0°C 39.2°F / 4.0°C 87% 30.14 in / 1020.5 hPa 10.0 miles / 16.1 kilometers NE 8.1 mph / 13.0 km/h - 0.00 in / 0.0 cm   Overcast
5:35 PM 42.8°F / 6.0°C 39.2°F / 4.0°C 87% 30.14 in / 1020.5 hPa 10.0 miles / 16.1 kilometers NE 9.2 mph / 14.8 km/h - 0.00 in / 0.0 cm   Overcast
5:55 PM 42.8°F / 6.0°C 39.2°F / 4.0°C 87% 30.14 in / 1020.5 hPa 9.0 miles / 14.5 kilometers NE 8.1 mph / 13.0 km/h - 0.00 in / 0.0 cm   Overcast
6:15 PM 42.8°F / 6.0°C 39.2°F / 4.0°C 87% 30.14 in / 1020.5 hPa 9.0 miles / 14.5 kilometers ENE 6.9 mph / 11.1 km/h - 0.00 in / 0.0 cm   Mostly Cloudy
7:15 PM 41.0°F / 5.0°C 39.2°F / 4.0°C 93% 30.14 in / 1020.5 hPa 10.0 miles / 16.1 kilometers NE 8.1 mph / 13.0 km/h - 0.00 in / 0.0 cm   Clear
7:35 PM 41.0°F / 5.0°C 39.2°F / 4.0°C 93% 30.15 in / 1020.9 hPa 9.0 miles / 14.5 kilometers NE 8.1 mph / 13.0 km/h - 0.00 in / 0.0 cm   Scattered Clouds
7:55 PM 41.0°F / 5.0°C 39.2°F / 4.0°C 93% 30.15 in / 1020.9 hPa 10.0 miles / 16.1 kilometers NE 8.1 mph / 13.0 km/h - 0.00 in / 0.0 cm   Scattered Clouds
8:15 PM 41.0°F / 5.0°C 39.2°F / 4.0°C 93% 30.15 in / 1020.9 hPa 9.0 miles / 14.5 kilometers NE 6.9 mph / 11.1 km/h - 0.00 in / 0.0 cm   Scattered Clouds
8:35 PM 41.0°F / 5.0°C 39.2°F / 4.0°C 93% 30.15 in / 1020.9 hPa 8.0 miles / 12.9 kilometers NE 6.9 mph / 11.1 km/h - 0.00 in / 0.0 cm   Mostly Cloudy
8:55 PM 41.0°F / 5.0°C 39.2°F / 4.0°C 93% 30.15 in / 1020.9 hPa 9.0 miles / 14.5 kilometers NE 6.9 mph / 11.1 km/h - 0.00 in / 0.0 cm   Scattered Clouds
9:15 PM 41.0°F / 5.0°C 39.2°F / 4.0°C 93% 30.15 in / 1020.9 hPa 9.0 miles / 14.5 kilometers ENE 6.9 mph / 11.1 km/h - 0.00 in / 0.0 cm   Mostly Cloudy
9:35 PM 41.0°F / 5.0°C 39.2°F / 4.0°C 93% 30.16 in / 1021.2 hPa 9.0 miles / 14.5 kilometers NE 5.8 mph / 9.3 km/h - 0.00 in / 0.0 cm   Overcast
9:55 PM 39.2°F / 4.0°C 39.2°F / 4.0°C 100% 30.16 in / 1021.2 hPa 10.0 miles / 16.1 kilometers NNE 6.9 mph / 11.1 km/h - 0.00 in / 0.0 cm   Overcast
10:15 PM 39.2°F / 4.0°C 39.2°F / 4.0°C 100% 30.16 in / 1021.2 hPa 10.0 miles / 16.1 kilometers NNE 8.1 mph / 13.0 km/h - 0.00 in / 0.0 cm   Scattered Clouds
10:35 PM 39.2°F / 4.0°C 39.2°F / 4.0°C 100% 30.17 in / 1021.6 hPa 10.0 miles / 16.1 kilometers NNE 5.8 mph / 9.3 km/h - 0.00 in / 0.0 cm   Scattered Clouds
11:15 PM 39.2°F / 4.0°C 39.2°F / 4.0°C 100% 30.17 in / 1021.6 hPa 9.0 miles / 14.5 kilometers NE 5.8 mph / 9.3 km/h - 0.00 in / 0.0 cm   Overcast
11:35 PM 39.2°F / 4.0°C 39.2°F / 4.0°C 100% 30.17 in / 1021.6 hPa 9.0 miles / 14.5 kilometers NNE 4.6 mph / 7.4 km/h - 0.00 in / 0.0 cm   Overcast
11:55 PM 39.2°F / 4.0°C 39.2°F / 4.0°C 100% 30.17 in / 1021.6 hPa 9.0 miles / 14.5 kilometers NNE 4.6 mph / 7.4 km/h - 0.00 in / 0.0 cm   Overcast
Moon Phase
Dec. 28 Jan. 04 Jan. 11 Jan. 18 Jan. 26
Sunrise:08:01 AM (PST) Moon Rise:05:09 PM (PST)12/28
Sunset:04:22 PM (PST) Moon Set:07:54 AM (PST)12/28

Copyright © 2014 The Weather Underground, Inc.